Location: Banios
(43.0451°N, 0.2335°E)
Time: 11:41:56
(UTC+00:00)

Envisat - Pass Details

Date: 16 December 2021
Orbit: 764 x 766 km, 98.2° (Epoch: 20 January)

Event Time Altitude Azimuth Distance (km) Brightness Sun altitude
Rises 06:25:11 0° 357° (N) 3,242 6.0 -10.4°
Reaches altitude 10° 06:28:11 10° 339° (NNW) 2,310 5.1 -9.9°
Maximum altitude 06:31:28 18° 299° (WNW) 1,833 4.3 -9.4°
Drops below altitude 10° 06:34:45 10° 258° (WSW) 2,300 5.0 -8.8°
Sets 06:37:44 0° 239° (WSW) 3,221 5.9 -8.3°
